Regional Weather Roundup
Issued by NWS Huntsville, AL

Home | Current Version | Previous Version | Text Only | Print | Product List | Glossary On
Versions: 1 2 3 4 5 6 7 8 9 10 11 12 13 14 15 16 17 18 19 20 21 22 23 24 25 26 27
000
ASUS44 KHUN 311110
RWRHUN

WEATHER ROUNDUP FOR THE TENNESSEE VALLEY
NATIONAL WEATHER SERVICE HUNTSVILLE AL
600 AM CDT TUE MAY 31 2016

ALZ001>004-311200-
NORTHWEST ALABAMA

CITY           SKY/WX    TMP DP  RH WIND       PRES   REMARKS
COURTLAND HCN    N/A     64 N/A N/A CALM        N/A
RUSSELLVILLE     N/A     63 N/A N/A MISG        N/A
SHOALS AIRPORT CLOUDY    66  62  87 CALM      29.97R
SHOALS TVA RES   N/A     64 N/A N/A MISG        N/A
$$

ALZ005>007-016-311200-
NORTH CENTRAL ALABAMA

CITY           SKY/WX    TMP DP  RH WIND       PRES   REMARKS
CULLMAN AG STN   N/A     63 N/A N/A CALM        N/A
DECATUR AP     CLOUDY    65  61  87 CALM      29.96R
HUNTSVILLE AP  CLOUDY    67  60  78 CALM      29.96R
HUN NWS/UAH      N/A     69  58  67 CALM        N/A
MERIDIANVILLE  CLOUDY    63  55  77 CALM      29.97R
REDSTONE ARSN  CLOUDY    66  60  81 CALM      29.96R
VINEMONT AP    FAIR      62  60  94 CALM      29.99R
$$

ALZ008>010-311200-
NORTHEAST ALABAMA

CITY           SKY/WX    TMP DP  RH WIND       PRES   REMARKS
FORT PAYNE     CLEAR     59  55  88 CALM      29.97R
SCOTTSBORO AP  CLEAR     63  63 100 CALM      29.98R
SCOTTSBORO HCN   N/A     61 N/A N/A MISG        N/A
VALLEY HEAD      N/A     59 N/A N/A MISG        N/A
$$

TNZ076-096-097-311200-
SOUTHEASTERN MIDDLE TENNESSEE

CITY           SKY/WX    TMP DP  RH WIND       PRES   REMARKS
TULLAHOMA      CLEAR     57  57 100 CALM      29.99S
WINCHESTER     CLEAR     57  57 100 CALM      29.99R
$$

...SURROUNDING SITES...

CITY           SKY/WX    TMP DP  RH WIND       PRES   REMARKS
ATLANTA        MOCLDY    72  61  68 NE7       29.96R
ANNISTON       CLEAR     65  62  90 CALM      29.95R
BIRMINGHAM     MOCLDY    69  65  86 CALM      29.96R
CHATTANOOGA    CLOUDY    66  63  90 CALM      29.97R
DALTON         CLEAR     61  61 100 CALM      29.97R
GADSDEN        CLEAR     63  62  97 CALM      29.96R
GOLDEN TRNGL   CLEAR     68  63  83 W3        29.93R
HALEYVILLE     FAIR      63  61  93 CALM      29.98R
JACKSON TN     PTCLDY    68  65  90 CALM      29.96R
MEMPHIS        RAIN      70  66  88 W7        30.00R FOG
NASHVILLE      CLOUDY    65  61  87 CALM      29.98R
OXFORD MS      LGT RAIN  66  64  94 N7        29.98F
ROME           CLEAR     63  61  93 NE3       29.96R
SAVANNAH       CLEAR     64  63  94 CALM      29.95S
TUPELO         CLOUDY    70  63  78 N5        29.93R
TUSCALOOSA     PTCLDY    69  67  93 CALM      29.93R
$$

...GULF COAST WEATHER...

CITY           SKY/WX    TMP DP  RH WIND       PRES   REMARKS
GULFPORT       PTCLDY    73  71  93 CALM      29.93R
PASCAGOULA     PTCLDY    67  66  97 CALM      29.94R
MOBILE         PTCLDY    69  69 100 CALM      29.95R
GULF SHORES    FOG       70  70 100 E7        29.93R VSB<1/4
PENSACOLA      MOCLDY    72  69  90 CALM      29.92
DESTIN         PTCLDY    76  72  87 CALM      29.92R
PANAMA CITY    PTCLDY    77  75  93 CALM      29.93R
APPALACHICOLA  CLEAR     76  76 100 W6        29.94R
$$





USA.gov is the U.S. government's official web portal to all federal, state and local government web resources and services.